Location: Arthez
(43.0833°N, 0.2500°W)
Time: 11:19:21
(UTC+00:00)

Cosmos 1275 Rocket - Visible Passes

Search period start: 17 August 2022 00:00
Search period end: 27 August 2022 00:00
Orbit: 821 x 838 km, 83.0° (Epoch: 16 August)

Date Brightness Start Highest point End Pass type
(mag) Time Alt. Az. Time Alt. Az. Time Alt. Az.
18 Aug 8.2 20:04:46 10° WNW 20:06:03 11° WNW 20:07:21 10° W visible
19 Aug 8.0 19:45:14 10° NW 19:47:59 14° W 19:50:43 10° WSW visible
20 Aug 7.8 19:26:19 10° NW 19:29:53 18° W 19:33:26 10° WSW visible
